Home   Weather   Jujuy   Past weeks

Flag for Argentina Past Weather in Jujuy, Jujuy, Argentina — Yesterday and Last 2 Weeks

Now
57 °F

Sunny.


Feels Like: 56 °F
Forecast: N/A
Wind: 6 mph from Northwest

Location: Jujuy Aerodrome

Current Time: Aug 20, 2017 at 6:29:02 pm

Latest Report: Aug 20, 2017 at 6:00 pm


Visibility: 10 mi

Pressure: 30.36 "Hg (21.51 "Hg at 2895m altitude)

Humidity: 59%

Dew Point: 43 °F

Location of JujuyLocation

Past Weather in Jujuy — Graph

°F

Jujuy Temperature Yesterday

Maximum temperature yesterday: 88 °F (at 2:00 pm)
Minimum temperature yesterday: 54 °F (at 3:00 am)
Average temperature yesterday: 68 °F

High & Low Weather Summary for the Past Weeks

 TemperatureHumidityPressure
High88 °F (Aug 19, 2:00 pm)94% (Aug 12, 7:00 pm)30.45 "Hg (Aug 12, 7:00 pm)
Low43 °F (Aug 13, 8:00 am)15% (Aug 19, 12:00 pm)29.53 "Hg (Aug 11, 3:00 pm)
Average62 °F62%29.95 "Hg
* Reported Aug 5 5:00 pm — Aug 20 5:00 pm, Jujuy. Weather by CustomWeather, © 2017

Note: Actual official high and low records may vary slightly from our data, if they occured in-between our weather recording intervals... More about our weather records

Advertising

Jujuy Weather History for the Previous 24 Hours

Scroll right to see more
 ConditionsComfort  
Time TempWeatherWind HumidityBarometerVisibility
5:00 pm
Sun, Aug 20
57 °FSunny.6 mph59%30.36 "Hg10 mi
4:00 pm57 °FMore clouds than sun.12 mph55%30.36 "HgN/A
3:00 pm57 °FMore clouds than sun.14 mph55%30.39 "HgN/A
2:00 pm59 °FMore clouds than sun.14 mph48%30.42 "HgN/A
1:00 pm61 °FMore clouds than sun.7 mph39%30.45 "HgN/A
12:00 pm59 °FOvercast.3 mph42%30.45 "HgN/A
11:00 am59 °FOvercast.6 mph39%30.45 "HgN/A
10:00 am59 °FOvercast.7 mph45%30.45 "HgN/A
9:00 am57 °FOvercast.8 mph51%30.39 "HgN/A
8:00 am57 °FBroken clouds.7 mph55%30.36 "HgN/A
7:00 am57 °FPassing clouds.10 mph59%30.30 "HgN/A
6:00 am57 °FPassing clouds.8 mph59%30.27 "HgN/A
5:00 am57 °FPassing clouds.9 mph59%30.24 "HgN/A
4:00 am57 °FPassing clouds.12 mph59%30.21 "HgN/A
3:00 am57 °FPassing clouds.15 mph63%30.21 "HgN/A
2:00 am57 °FPassing clouds.15 mph59%30.18 "HgN/A
1:00 am59 °FPassing clouds.13 mph59%30.15 "HgN/A
12:00 am61 °FPassing clouds.13 mph55%30.12 "HgN/A
11:00 pm
Sat, Aug 19
61 °FPassing clouds.18 mph55%30.12 "HgN/A
10:00 pm63 °FPassing clouds.18 mph56%30.07 "HgN/A
9:00 pm63 °FPassing clouds.22 mph52%30.01 "HgN/A
8:00 pm64 °FClear.21 mph49%29.92 "Hg5 mi
7:20 pm72 °FClear.23 mph50%29.83 "Hg4 mi
7:00 pm72 °FClear.23 mph50%29.83 "Hg3 mi
6:00 pm81 °FClear.15 mph28%29.77 "Hg2 mi
Weather by CustomWeather, © 2017

See weather overviewHow to use our weather pages